Time,TemperatureF,DewpointF,PressureIn,WindDirection,WindDirectionDegrees,WindSpeedMPH,WindSpeedGustMPH,Humidity,HourlyPrecipIn,Conditions,Clouds,dailyrainin,SoftwareType,DateUTC
2013-06-10 00:01:00,65.1,51.1,30.05,SE,135,0.8,3.5,60,0.00,,,0.00,WUHU21636XXSP,2013-06-10 04:01:00,
2013-06-10 00:02:00,65.1,51.1,30.05,SE,135,0.8,3.5,60,0.00,,,0.00,WUHU21636XXSP,2013-06-10 04:02:00,
2013-06-10 00:07:00,65.1,51.1,30.05,SE,135,0.0,3.5,60,0.00,,,0.00,WUHU21636XXSP,2013-06-10 04:07:00,
2013-06-10 00:11:00,64.9,50.7,30.05,SE,135,0.0,1.3,60,0.00,,,0.00,WUHU21636XXSP,2013-06-10 04:11:00,
2013-06-10 00:17:00,64.8,50.9,30.04,ESE,112,0.0,0.6,61,0.00,,,0.00,WUHU21636XXSP,2013-06-10 04:17:00,
2013-06-10 00:22:00,64.6,50.4,30.04,SE,135,5.8,5.8,60,0.00,,,0.00,WUHU21636XXSP,2013-06-10 04:22:00,
2013-06-10 00:27:00,64.6,49.8,30.04,ESE,112,5.8,14.5,59,0.00,,,0.00,WUHU21636XXSP,2013-06-10 04:27:00,
2013-06-10 00:32:00,64.8,50.0,30.04,SE,135,4.0,14.5,59,0.00,,,0.00,WUHU21636XXSP,2013-06-10 04:32:00,
2013-06-10 00:37:00,64.6,50.4,30.04,SE,135,0.0,12.7,60,0.00,,,0.00,WUHU21636XXSP,2013-06-10 04:37:00,
2013-06-10 00:42:00,64.2,50.0,30.04,SE,135,1.7,7.1,60,0.00,,,0.00,WUHU21636XXSP,2013-06-10 04:42:00,
2013-06-10 00:47:00,64.2,50.0,30.04,SE,135,3.3,7.6,60,0.00,,,0.00,WUHU21636XXSP,2013-06-10 04:47:00,
2013-06-10 00:52:00,64.0,49.8,30.04,SE,135,0.0,7.6,60,0.00,,,0.00,WUHU21636XXSP,2013-06-10 04:52:00,
2013-06-10 00:57:00,63.9,50.0,30.04,SE,135,0.0,3.3,61,0.00,,,0.00,WUHU21636XXSP,2013-06-10 04:57:00,
2013-06-10 01:02:00,63.5,50.2,30.04,SE,135,0.8,0.8,62,0.00,,,0.00,WUHU21636XXSP,2013-06-10 05:02:00,
2013-06-10 01:07:00,63.3,50.0,30.04,SE,135,0.8,1.7,62,0.00,,,0.00,WUHU21636XXSP,2013-06-10 05:07:00,
2013-06-10 01:12:00,63.1,49.8,30.04,ESE,112,1.7,1.7,63,0.00,,,0.00,WUHU21636XXSP,2013-06-10 05:12:00,
2013-06-10 01:17:00,63.0,49.6,30.04,SE,135,0.0,1.7,62,0.00,,,0.00,WUHU21636XXSP,2013-06-10 05:17:00,
2013-06-10 01:22:00,63.0,49.6,30.04,SE,135,0.0,4.2,62,0.00,,,0.00,WUHU21636XXSP,2013-06-10 05:22:00,
2013-06-10 01:27:00,63.0,49.6,30.04,SE,135,1.3,4.2,62,0.00,,,0.00,WUHU21636XXSP,2013-06-10 05:27:00,
2013-06-10 01:32:00,63.0,50.0,30.03,SE,135,5.5,5.5,63,0.00,,,0.00,WUHU21636XXSP,2013-06-10 05:32:00,
2013-06-10 01:37:00,63.3,50.0,30.03,SE,135,2.2,5.5,62,0.00,,,0.00,WUHU21636XXSP,2013-06-10 05:37:00,
2013-06-10 01:42:00,63.3,50.0,30.03,SE,135,4.2,6.4,62,0.00,,,0.00,WUHU21636XXSP,2013-06-10 05:42:00,
2013-06-10 01:47:00,63.5,50.2,30.03,SE,135,5.1,10.2,62,0.00,,,0.00,WUHU21636XXSP,2013-06-10 05:47:00,
2013-06-10 01:52:00,63.5,50.2,30.03,SE,135,1.5,10.2,62,0.00,,,0.00,WUHU21636XXSP,2013-06-10 05:52:00,
2013-06-10 01:57:00,63.5,49.6,30.02,SE,135,4.0,9.6,61,0.00,,,0.00,WUHU21636XXSP,2013-06-10 05:57:00,
2013-06-10 02:02:00,63.7,50.4,30.02,SE,135,4.0,7.3,62,0.00,,,0.00,WUHU21636XXSP,2013-06-10 06:02:00,
2013-06-10 02:07:00,63.7,50.4,30.02,ESE,112,0.8,8.0,62,0.00,,,0.00,WUHU21636XXSP,2013-06-10 06:07:00,
2013-06-10 02:12:00,63.3,50.0,30.02,SE,135,3.8,8.0,62,0.00,,,0.00,WUHU21636XXSP,2013-06-10 06:12:00,
2013-06-10 02:17:00,63.1,50.2,30.01,ESE,112,1.3,7.3,63,0.00,,,0.00,WUHU21636XXSP,2013-06-10 06:17:00,
2013-06-10 02:22:00,63.1,50.2,30.01,SSE,157,0.0,7.3,63,0.00,,,0.00,WUHU21636XXSP,2013-06-10 06:22:00,
2013-06-10 02:27:00,62.8,50.4,30.01,SE,135,0.0,4.2,64,0.00,,,0.00,WUHU21636XXSP,2013-06-10 06:27:00,
2013-06-10 02:32:00,62.8,50.4,30.01,SE,135,0.0,0.0,64,0.00,,,0.00,WUHU21636XXSP,2013-06-10 06:32:00,
2013-06-10 02:37:00,62.2,50.2,30.01,ESE,112,0.0,0.4,65,0.00,,,0.00,WUHU21636XXSP,2013-06-10 06:37:00,
2013-06-10 02:42:00,62.2,50.2,30.01,SE,135,5.3,5.3,65,0.00,,,0.00,WUHU21636XXSP,2013-06-10 06:42:00,
2013-06-10 02:47:00,62.2,50.2,30.01,SE,135,0.0,5.3,65,0.00,,,0.00,WUHU21636XXSP,2013-06-10 06:47:00,
2013-06-10 02:52:00,62.2,50.2,30.00,SE,135,0.0,5.3,66,0.00,,,0.00,WUHU21636XXSP,2013-06-10 06:52:00,
2013-06-10 02:57:00,62.2,50.2,30.00,East,90,0.0,3.8,66,0.00,,,0.00,WUHU21636XXSP,2013-06-10 06:57:00,
2013-06-10 03:02:00,62.2,50.2,30.00,SE,135,3.3,3.8,66,0.00,,,0.00,WUHU21636XXSP,2013-06-10 07:02:00,
2013-06-10 03:07:00,62.2,50.2,29.99,SE,135,1.5,3.3,65,0.00,,,0.00,WUHU21636XXSP,2013-06-10 07:07:00,
2013-06-10 03:12:00,62.4,50.4,29.99,SE,135,0.8,3.3,65,0.00,,,0.00,WUHU21636XXSP,2013-06-10 07:12:00,
2013-06-10 03:17:00,62.4,50.4,29.99,SE,135,1.7,3.1,65,0.00,,,0.00,WUHU21636XXSP,2013-06-10 07:17:00,
2013-06-10 03:22:00,62.6,50.5,29.99,SE,135,3.3,3.3,65,0.00,,,0.00,WUHU21636XXSP,2013-06-10 07:22:00,
2013-06-10 03:27:00,62.6,50.5,29.99,ENE,67,2.9,3.3,65,0.00,,,0.00,WUHU21636XXSP,2013-06-10 07:27:00,
2013-06-10 03:32:00,62.8,50.7,29.98,SSE,157,1.1,3.3,65,0.00,,,0.00,WUHU21636XXSP,2013-06-10 07:32:00,
2013-06-10 03:37:00,62.8,50.7,29.98,ESE,112,2.9,2.9,65,0.00,,,0.00,WUHU21636XXSP,2013-06-10 07:37:00,
2013-06-10 03:42:00,63.0,50.9,29.98,SE,135,6.9,7.3,65,0.00,,,0.00,WUHU21636XXSP,2013-06-10 07:42:00,
2013-06-10 03:47:00,63.1,51.1,29.98,SE,135,4.4,9.6,65,0.00,,,0.00,WUHU21636XXSP,2013-06-10 07:47:00,
2013-06-10 03:52:00,63.3,51.3,29.98,SE,135,3.5,9.6,65,0.00,,,0.00,WUHU21636XXSP,2013-06-10 07:52:00,
2013-06-10 03:57:00,63.3,51.3,29.97,SE,135,0.0,8.5,65,0.00,,,0.00,WUHU21636XXSP,2013-06-10 07:57:00,
2013-06-10 04:02:00,63.3,50.7,29.97,SE,135,3.3,6.2,64,0.00,,,0.00,WUHU21636XXSP,2013-06-10 08:02:00,
2013-06-10 04:07:00,63.5,50.9,29.97,SE,135,4.0,6.4,64,0.00,,,0.00,WUHU21636XXSP,2013-06-10 08:07:00,
2013-06-10 04:12:00,63.7,51.1,29.97,SE,135,2.2,11.4,64,0.00,,,0.00,WUHU21636XXSP,2013-06-10 08:12:00,
2013-06-10 04:17:00,63.7,51.1,29.97,SE,135,4.4,11.4,64,0.00,,,0.00,WUHU21636XXSP,2013-06-10 08:17:00,
2013-06-10 04:22:00,63.7,51.1,29.97,SE,135,4.9,4.9,64,0.00,,,0.00,WUHU21636XXSP,2013-06-10 08:22:00,
2013-06-10 04:27:00,64.0,51.1,29.96,SE,135,2.6,7.3,63,0.00,,,0.00,WUHU21636XXSP,2013-06-10 08:27:00,
2013-06-10 04:32:00,64.0,51.1,29.96,SE,135,1.5,7.3,63,0.00,,,0.00,WUHU21636XXSP,2013-06-10 08:32:00,
2013-06-10 04:37:00,64.0,51.1,29.96,SE,135,2.2,2.9,63,0.00,,,0.00,WUHU21636XXSP,2013-06-10 08:37:00,
2013-06-10 04:42:00,64.0,51.1,29.96,SE,135,3.5,4.6,63,0.00,,,0.00,WUHU21636XXSP,2013-06-10 08:42:00,
2013-06-10 04:47:00,63.9,50.9,29.96,SE,135,2.9,4.6,63,0.00,,,0.00,WUHU21636XXSP,2013-06-10 08:47:00,
2013-06-10 04:52:00,63.5,50.9,29.95,SE,135,5.1,5.1,64,0.00,,,0.00,WUHU21636XXSP,2013-06-10 08:52:00,
2013-06-10 04:57:00,63.3,50.7,29.95,SSE,157,7.1,8.0,64,0.00,,,0.00,WUHU21636XXSP,2013-06-10 08:57:00,
2013-06-10 05:02:00,63.3,51.3,29.95,SE,135,4.9,9.8,65,0.00,,,0.00,WUHU21636XXSP,2013-06-10 09:02:00,
2013-06-10 05:07:00,63.2,51.8,29.95,SE,135,4.4,9.8,66,0.00,,,0.00,WUHU21636XXSP,2013-06-10 09:07:00,
2013-06-10 05:12:00,63.1,52.0,29.95,SE,135,5.1,7.3,67,0.00,,,0.00,WUHU21636XXSP,2013-06-10 09:12:00,
2013-06-10 05:17:00,63.0,52.2,29.95,SE,135,4.4,7.3,68,0.00,,,0.00,WUHU21636XXSP,2013-06-10 09:17:00,
2013-06-10 05:22:00,62.8,52.0,29.95,SE,135,3.5,7.3,68,0.00,,,0.00,WUHU21636XXSP,2013-06-10 09:22:00,
2013-06-10 05:27:00,62.8,52.0,29.95,SE,135,4.0,8.5,68,0.00,,,0.00,WUHU21636XXSP,2013-06-10 09:27:00,
2013-06-10 05:32:00,62.8,52.2,29.95,SE,135,4.2,8.5,69,0.00,,,0.00,WUHU21636XXSP,2013-06-10 09:32:00,
2013-06-10 05:37:00,62.4,52.0,29.95,SE,135,0.2,7.8,69,0.00,,,0.00,WUHU21636XXSP,2013-06-10 09:37:00,
2013-06-10 05:42:00,62.4,52.0,29.95,ESE,112,4.2,7.8,69,0.00,,,0.00,WUHU21636XXSP,2013-06-10 09:42:00,
2013-06-10 05:47:00,62.4,52.5,29.95,SE,135,4.0,14.5,70,0.00,,,0.00,WUHU21636XXSP,2013-06-10 09:47:00,
2013-06-10 05:52:00,62.6,52.7,29.95,SE,135,2.6,18.5,70,0.00,,,0.00,WUHU21636XXSP,2013-06-10 09:52:00,
2013-06-10 05:57:00,62.8,52.9,29.95,ESE,112,3.8,18.5,70,0.00,,,0.00,WUHU21636XXSP,2013-06-10 09:57:00,
2013-06-10 06:02:00,62.8,52.9,29.95,SE,135,0.0,4.0,70,0.00,,,0.00,WUHU21636XXSP,2013-06-10 10:02:00,
2013-06-10 06:07:00,62.4,52.5,29.95,SE,135,0.0,3.8,70,0.00,,,0.00,WUHU21636XXSP,2013-06-10 10:07:00,
2013-06-10 06:12:00,62.4,52.5,29.95,SE,135,0.0,0.0,71,0.00,,,0.00,WUHU21636XXSP,2013-06-10 10:12:00,
2013-06-10 06:17:00,62.4,52.5,29.95,SE,135,0.0,0.0,72,0.00,,,0.00,WUHU21636XXSP,2013-06-10 10:17:00,
2013-06-10 06:22:00,62.4,53.2,29.95,SE,135,3.8,4.9,72,0.00,,,0.00,WUHU21636XXSP,2013-06-10 10:22:00,
2013-06-10 06:27:00,62.8,53.6,29.95,SE,135,0.0,4.9,72,0.00,,,0.00,WUHU21636XXSP,2013-06-10 10:27:00,
2013-06-10 06:32:00,62.8,53.6,29.95,SE,135,0.0,4.9,72,0.00,,,0.00,WUHU21636XXSP,2013-06-10 10:32:00,
2013-06-10 06:37:00,62.4,53.6,29.95,SE,135,0.0,3.1,73,0.00,,,0.00,WUHU21636XXSP,2013-06-10 10:37:00,
2013-06-10 06:42:00,62.6,53.8,29.95,ESE,112,0.0,3.1,74,0.00,,,0.00,WUHU21636XXSP,2013-06-10 10:42:00,
2013-06-10 06:47:00,62.4,54.0,29.95,ESE,112,0.0,1.5,74,0.00,,,0.00,WUHU21636XXSP,2013-06-10 10:47:00,
2013-06-10 06:52:00,62.2,53.8,29.95,ESE,112,0.0,17.0,74,0.00,,,0.00,WUHU21636XXSP,2013-06-10 10:52:00,
2013-06-10 06:57:00,62.2,53.8,29.95,SE,135,0.0,17.0,75,0.00,,,0.00,WUHU21636XXSP,2013-06-10 10:57:00,
2013-06-10 07:02:00,62.2,53.8,29.95,SE,135,0.0,7.6,76,0.00,,,0.00,WUHU21636XXSP,2013-06-10 11:02:00,
2013-06-10 07:07:00,62.2,53.8,29.95,SE,135,3.3,7.6,77,0.00,,,0.00,WUHU21636XXSP,2013-06-10 11:07:00,
2013-06-10 07:12:00,62.2,54.9,29.94,SE,135,0.0,4.2,77,0.00,,,0.00,WUHU21636XXSP,2013-06-10 11:12:00,
2013-06-10 07:17:00,62.4,55.0,29.94,ESE,112,0.0,4.2,77,0.00,,,0.00,WUHU21636XXSP,2013-06-10 11:17:00,
2013-06-10 07:22:00,62.4,55.0,29.94,ESE,112,0.0,0.0,77,0.00,,,0.00,WUHU21636XXSP,2013-06-10 11:22:00,
2013-06-10 07:27:00,62.4,55.2,29.94,East,90,0.0,0.0,77,0.00,,,0.00,WUHU21636XXSP,2013-06-10 11:27:00,
2013-06-10 07:32:00,62.2,55.2,29.94,ESE,112,0.0,0.0,78,0.00,,,0.00,WUHU21636XXSP,2013-06-10 11:32:00,
2013-06-10 07:37:00,62.2,55.6,29.95,SE,135,1.3,5.3,79,0.00,,,0.00,WUHU21636XXSP,2013-06-10 11:37:00,
2013-06-10 07:42:00,62.4,55.8,29.94,SE,135,3.5,5.3,79,0.00,,,0.00,WUHU21636XXSP,2013-06-10 11:42:00,
2013-06-10 07:47:00,62.2,55.9,29.94,SE,135,4.4,7.1,80,0.00,,,0.00,WUHU21636XXSP,2013-06-10 11:47:00,
2013-06-10 07:52:00,62.2,56.3,29.94,SE,135,5.3,8.9,81,0.00,,,0.00,WUHU21636XXSP,2013-06-10 11:52:00,
2013-06-10 07:57:00,62.1,56.5,29.94,SSE,157,4.4,8.9,82,0.00,,,0.00,WUHU21636XXSP,2013-06-10 11:57:00,
2013-06-10 08:02:00,61.9,56.5,29.94,SSE,157,0.0,4.4,83,0.00,,,0.00,WUHU21636XXSP,2013-06-10 12:02:00,
2013-06-10 08:07:00,61.9,56.5,29.94,SSE,157,0.0,4.4,83,0.00,,,0.00,WUHU21636XXSP,2013-06-10 12:07:00,
2013-06-10 08:12:00,61.7,56.7,29.94,SSE,157,0.0,0.4,85,0.00,,,0.00,WUHU21636XXSP,2013-06-10 12:12:00,
2013-06-10 08:17:00,61.5,56.8,29.94,SSE,157,2.4,2.4,85,0.00,,,0.00,WUHU21636XXSP,2013-06-10 12:17:00,
2013-06-10 08:22:00,61.5,56.8,29.93,SE,135,0.0,5.1,84,0.00,,,0.00,WUHU21636XXSP,2013-06-10 12:22:00,
2013-06-10 08:27:00,61.5,56.8,29.93,SE,135,0.0,5.1,85,0.00,,,0.00,WUHU21636XXSP,2013-06-10 12:27:00,
2013-06-10 08:32:00,61.5,57.2,29.93,SE,135,5.1,5.1,86,0.00,,,0.00,WUHU21636XXSP,2013-06-10 12:32:00,
2013-06-10 08:37:00,61.5,57.2,29.93,SE,135,5.3,9.1,86,0.00,,,0.00,WUHU21636XXSP,2013-06-10 12:37:00,
2013-06-10 08:42:00,61.3,57.0,29.92,ESE,112,6.0,9.8,86,0.00,,,0.00,WUHU21636XXSP,2013-06-10 12:42:00,
2013-06-10 08:47:00,61.3,56.7,29.93,SE,135,3.8,9.8,85,0.00,,,0.00,WUHU21636XXSP,2013-06-10 12:47:00,
2013-06-10 08:52:00,61.7,57.4,29.92,SE,135,4.0,7.1,86,0.00,,,0.00,WUHU21636XXSP,2013-06-10 12:52:00,
2013-06-10 08:57:00,61.7,57.4,29.93,SSE,157,1.3,4.0,86,0.00,,,0.00,WUHU21636XXSP,2013-06-10 12:57:00,
2013-06-10 09:02:00,61.9,57.2,29.93,SE,135,0.0,4.0,85,0.00,,,0.00,WUHU21636XXSP,2013-06-10 13:02:00,
2013-06-10 09:07:00,62.4,57.7,29.93,SE,135,3.1,4.0,85,0.00,,,0.00,WUHU21636XXSP,2013-06-10 13:07:00,
2013-06-10 09:12:00,62.4,57.7,29.93,SE,135,3.3,4.0,85,0.00,,,0.00,WUHU21636XXSP,2013-06-10 13:12:00,
2013-06-10 09:17:00,62.4,57.4,29.94,SE,135,3.1,4.2,84,0.00,,,0.00,WUHU21636XXSP,2013-06-10 13:17:00,
2013-06-10 09:22:00,62.4,57.4,29.93,SE,135,1.7,4.2,84,0.00,,,0.00,WUHU21636XXSP,2013-06-10 13:22:00,
2013-06-10 09:27:00,62.2,57.2,29.93,ENE,67,2.0,3.8,84,0.00,,,0.00,WUHU21636XXSP,2013-06-10 13:27:00,
2013-06-10 09:32:00,61.9,57.2,29.93,SE,135,3.5,9.1,85,0.00,,,0.00,WUHU21636XXSP,2013-06-10 13:32:00,
2013-06-10 09:37:00,61.7,57.0,29.93,SE,135,3.3,9.1,85,0.00,,,0.00,WUHU21636XXSP,2013-06-10 13:37:00,
2013-06-10 09:42:00,61.5,56.8,29.93,SE,135,5.3,7.1,85,0.00,,,0.00,WUHU21636XXSP,2013-06-10 13:42:00,
2013-06-10 09:47:00,61.5,56.8,29.93,SE,135,1.7,5.3,85,0.00,,,0.00,WUHU21636XXSP,2013-06-10 13:47:00,
2013-06-10 09:52:00,61.3,56.8,29.93,SE,135,3.5,5.3,85,0.00,,,0.00,WUHU21636XXSP,2013-06-10 13:52:00,
2013-06-10 09:57:00,61.3,56.8,29.93,SE,135,0.0,3.5,85,0.00,,,0.00,WUHU21636XXSP,2013-06-10 13:57:00,
2013-06-10 10:02:00,61.3,56.8,29.93,SE,135,1.7,3.5,85,0.00,,,0.00,WUHU21636XXSP,2013-06-10 14:02:00,
2013-06-10 10:07:00,61.3,56.8,29.93,ESE,112,0.0,1.7,85,0.00,,,0.00,WUHU21636XXSP,2013-06-10 14:07:00,
2013-06-10 10:12:00,61.5,56.8,29.93,SE,135,0.0,2.9,85,0.00,,,0.00,WUHU21636XXSP,2013-06-10 14:12:00,
2013-06-10 10:17:00,61.7,57.0,29.93,ENE,67,0.0,6.7,85,0.00,,,0.00,WUHU21636XXSP,2013-06-10 14:17:00,
2013-06-10 10:22:00,61.9,57.6,29.92,SE,135,2.6,6.7,86,0.00,,,0.00,WUHU21636XXSP,2013-06-10 14:22:00,
2013-06-10 10:27:00,62.2,57.6,29.92,SE,135,4.2,4.2,85,0.00,,,0.00,WUHU21636XXSP,2013-06-10 14:27:00,
2013-06-10 10:32:00,62.6,58.3,29.92,ENE,67,0.0,4.2,86,0.00,,,0.00,WUHU21636XXSP,2013-06-10 14:32:00,
2013-06-10 10:37:00,63.0,58.6,29.91,NNE,22,0.0,4.2,86,0.00,,,0.00,WUHU21636XXSP,2013-06-10 14:37:00,
2013-06-10 10:42:00,63.5,59.2,29.92,NNE,22,0.0,0.0,86,0.00,,,0.00,WUHU21636XXSP,2013-06-10 14:42:00,
2013-06-10 10:47:00,63.5,59.2,29.92,WNW,292,0.0,0.0,84,0.00,,,0.00,WUHU21636XXSP,2013-06-10 14:47:00,
2013-06-10 10:52:00,64.0,59.4,29.92,WNW,292,0.0,0.0,85,0.00,,,0.00,WUHU21636XXSP,2013-06-10 14:52:00,
2013-06-10 10:57:00,64.4,59.7,29.92,WNW,292,0.0,0.0,85,0.00,,,0.00,WUHU21636XXSP,2013-06-10 14:57:00,
2013-06-10 11:02:00,64.6,59.2,29.92,WNW,292,0.0,0.0,83,0.00,,,0.00,WUHU21636XXSP,2013-06-10 15:02:00,
2013-06-10 11:07:00,64.8,59.4,29.91,WNW,292,0.0,6.7,83,0.00,,,0.00,WUHU21636XXSP,2013-06-10 15:07:00,
2013-06-10 11:12:00,65.1,59.7,29.91,SW,225,0.0,6.7,83,0.00,,,0.00,WUHU21636XXSP,2013-06-10 15:12:00,
2013-06-10 11:17:00,65.3,59.5,29.92,SE,135,0.0,3.5,81,0.00,,,0.00,WUHU21636XXSP,2013-06-10 15:17:00,
2013-06-10 11:22:00,65.3,59.5,29.92,SE,135,0.0,3.5,81,0.00,,,0.00,WUHU21636XXSP,2013-06-10 15:22:00,
2013-06-10 11:27:00,65.3,59.0,29.92,SE,135,0.0,1.7,81,0.00,,,0.00,WUHU21636XXSP,2013-06-10 15:27:00,
2013-06-10 11:32:00,65.5,59.4,29.92,SE,135,0.0,1.7,81,0.00,,,0.00,WUHU21636XXSP,2013-06-10 15:32:00,
2013-06-10 11:37:00,65.7,59.5,29.93,SE,135,0.0,0.0,81,0.00,,,0.00,WUHU21636XXSP,2013-06-10 15:37:00,
2013-06-10 11:42:00,66.0,59.9,29.93,SE,135,0.0,0.0,81,0.00,,,0.00,WUHU21636XXSP,2013-06-10 15:42:00,
2013-06-10 11:47:00,66.4,60.3,29.93,SE,135,0.0,0.0,81,0.00,,,0.00,WUHU21636XXSP,2013-06-10 15:47:00,
2013-06-10 11:52:00,66.4,60.3,29.93,SE,135,0.0,0.0,81,0.00,,,0.00,WUHU21636XXSP,2013-06-10 15:52:00,
2013-06-10 11:57:00,66.4,60.1,29.93,East,90,0.0,0.0,80,0.00,,,0.00,WUHU21636XXSP,2013-06-10 15:57:00,
2013-06-10 12:02:00,66.4,60.1,29.92,SE,135,0.0,0.0,79,0.00,,,0.00,WUHU21636XXSP,2013-06-10 16:02:00,
2013-06-10 12:07:00,66.7,59.9,29.92,SE,135,0.0,0.0,79,0.00,,,0.00,WUHU21636XXSP,2013-06-10 16:07:00,
2013-06-10 12:12:00,67.5,60.6,29.92,SE,135,2.2,3.5,79,0.00,,,0.00,WUHU21636XXSP,2013-06-10 16:12:00,
2013-06-10 12:17:00,67.6,60.6,29.92,SE,135,4.9,4.9,78,0.00,,,0.00,WUHU21636XXSP,2013-06-10 16:17:00,
2013-06-10 12:22:00,68.2,61.0,29.92,SE,135,4.0,7.8,78,0.00,,,0.00,WUHU21636XXSP,2013-06-10 16:22:00,
2013-06-10 12:27:00,68.5,61.0,29.92,SSE,157,5.5,8.0,76,0.00,,,0.00,WUHU21636XXSP,2013-06-10 16:27:00,
2013-06-10 12:32:00,68.5,60.6,29.91,SE,135,3.1,12.3,76,0.00,,,0.00,WUHU21636XXSP,2013-06-10 16:32:00,
2013-06-10 12:37:00,69.8,62.1,29.91,West,270,0.0,12.3,77,0.00,,,0.00,WUHU21636XXSP,2013-06-10 16:37:00,
2013-06-10 12:42:00,70.9,62.1,29.91,ESE,112,0.0,3.1,74,0.00,,,0.00,WUHU21636XXSP,2013-06-10 16:42:00,
2013-06-10 12:47:00,70.4,61.5,29.90,SE,135,0.0,4.2,73,0.00,,,0.00,WUHU21636XXSP,2013-06-10 16:47:00,
2013-06-10 12:52:00,71.2,61.3,29.90,SE,135,1.7,4.2,71,0.00,,,0.00,WUHU21636XXSP,2013-06-10 16:52:00,
2013-06-10 12:57:00,71.4,63.0,29.90,SE,135,2.0,4.0,75,0.00,,,0.00,WUHU21636XXSP,2013-06-10 16:57:00,
2013-06-10 13:02:00,71.4,62.2,29.90,SE,135,0.0,6.0,73,0.00,,,0.00,WUHU21636XXSP,2013-06-10 17:02:00,
2013-06-10 13:07:00,73.0,63.9,29.89,ENE,67,0.0,6.0,73,0.00,,,0.00,WUHU21636XXSP,2013-06-10 17:07:00,
2013-06-10 13:12:00,73.6,64.0,29.89,SE,135,4.2,4.2,73,0.00,,,0.00,WUHU21636XXSP,2013-06-10 17:12:00,
2013-06-10 13:17:00,73.0,63.1,29.89,SE,135,0.8,11.4,71,0.00,,,0.00,WUHU21636XXSP,2013-06-10 17:17:00,
2013-06-10 13:22:00,72.7,62.4,29.89,SE,135,1.1,11.4,70,0.00,,,0.00,WUHU21636XXSP,2013-06-10 17:22:00,
2013-06-10 13:27:00,73.0,62.8,29.89,SSE,157,2.0,6.2,70,0.00,,,0.00,WUHU21636XXSP,2013-06-10 17:27:00,
2013-06-10 13:32:00,73.9,63.7,29.89,SE,135,3.8,3.8,69,0.00,,,0.00,WUHU21636XXSP,2013-06-10 17:32:00,
2013-06-10 13:37:00,73.9,63.5,29.89,WSW,247,4.6,4.6,70,0.00,,,0.00,WUHU21636XXSP,2013-06-10 17:37:00,
2013-06-10 13:42:00,74.8,64.4,29.89,SW,225,2.0,4.6,70,0.00,,,0.00,WUHU21636XXSP,2013-06-10 17:42:00,
2013-06-10 13:47:00,74.8,64.4,29.90,ENE,67,0.0,4.6,69,0.00,,,0.00,WUHU21636XXSP,2013-06-10 17:47:00,
2013-06-10 13:52:00,75.0,64.0,29.90,North,0,0.0,2.9,66,0.00,,,0.00,WUHU21636XXSP,2013-06-10 17:52:00,
2013-06-10 13:57:00,74.1,63.3,29.90,ENE,67,0.0,2.9,69,0.00,,,0.00,WUHU21636XXSP,2013-06-10 17:57:00,
2013-06-10 14:02:00,74.1,61.5,29.90,SE,135,7.1,9.6,65,0.00,,,0.00,WUHU21636XXSP,2013-06-10 18:02:00,
2013-06-10 14:07:00,73.8,63.3,29.89,SE,135,0.0,9.8,70,0.00,,,0.00,WUHU21636XXSP,2013-06-10 18:07:00,
2013-06-10 14:13:00,74.1,62.8,29.89,SE,135,0.0,9.8,68,0.00,,,0.00,WUHU21636XXSP,2013-06-10 18:13:00,
2013-06-10 14:18:00,74.1,62.4,29.89,NNE,22,0.0,4.0,68,0.00,,,0.00,WUHU21636XXSP,2013-06-10 18:18:00,
2013-06-10 14:23:00,74.5,63.1,29.88,NNW,337,1.7,1.7,68,0.00,,,0.00,WUHU21636XXSP,2013-06-10 18:23:00,
2013-06-10 14:27:00,73.8,62.1,29.88,SE,135,2.9,13.1,67,0.00,,,0.00,WUHU21636XXSP,2013-06-10 18:27:00,
2013-06-10 14:32:00,73.8,63.3,29.88,SE,135,0.4,13.1,70,0.00,,,0.00,WUHU21636XXSP,2013-06-10 18:32:00,
2013-06-10 14:37:00,74.1,63.3,29.88,SE,135,0.0,2.9,69,0.00,,,0.00,WUHU21636XXSP,2013-06-10 18:37:00,
2013-06-10 14:42:00,74.3,63.0,29.88,NNW,337,0.0,1.1,67,0.00,,,0.00,WUHU21636XXSP,2013-06-10 18:42:00,
2013-06-10 14:47:00,74.1,63.3,29.87,SE,135,2.6,2.6,67,0.00,,,0.00,WUHU21636XXSP,2013-06-10 18:47:00,
2013-06-10 14:52:00,73.8,63.0,29.87,NE,45,0.0,2.6,69,0.00,,,0.00,WUHU21636XXSP,2013-06-10 18:52:00,
2013-06-10 14:57:00,73.8,62.1,29.88,South,180,0.0,2.6,68,0.00,,,0.00,WUHU21636XXSP,2013-06-10 18:57:00,
2013-06-10 15:02:00,73.6,61.9,29.88,SE,135,0.4,0.4,67,0.00,,,0.00,WUHU21636XXSP,2013-06-10 19:02:00,
2013-06-10 15:07:00,73.0,61.9,29.87,SE,135,0.0,0.4,68,0.00,,,0.00,WUHU21636XXSP,2013-06-10 19:07:00,
2013-06-10 15:12:00,72.1,61.3,29.88,SE,135,0.0,2.2,69,0.00,,,0.00,WUHU21636XXSP,2013-06-10 19:12:00,
2013-06-10 15:17:00,72.0,61.7,29.88,ESE,112,0.0,2.2,70,0.00,,,0.00,WUHU21636XXSP,2013-06-10 19:17:00,
2013-06-10 15:22:00,71.8,61.5,29.88,SE,135,0.0,0.0,71,0.00,,,0.00,WUHU21636XXSP,2013-06-10 19:22:00,
2013-06-10 15:27:00,71.2,61.3,29.88,SE,135,0.4,2.2,71,0.00,,,0.00,WUHU21636XXSP,2013-06-10 19:27:00,
2013-06-10 15:32:00,71.1,61.5,29.87,SE,135,0.0,2.2,72,0.00,,,0.00,WUHU21636XXSP,2013-06-10 19:32:00,
2013-06-10 15:37:00,70.9,61.3,29.87,SE,135,0.0,0.4,72,0.00,,,0.00,WUHU21636XXSP,2013-06-10 19:37:00,
2013-06-10 15:42:00,70.9,61.3,29.87,SE,135,0.0,0.0,72,0.00,,,0.00,WUHU21636XXSP,2013-06-10 19:42:00,
2013-06-10 15:47:00,70.7,61.2,29.87,SE,135,0.0,0.0,72,0.00,,,0.00,WUHU21636XXSP,2013-06-10 19:47:00,
2013-06-10 15:52:00,70.5,61.0,29.87,SE,135,0.4,0.4,72,0.00,,,0.00,WUHU21636XXSP,2013-06-10 19:52:00,
2013-06-10 15:57:00,70.3,61.0,29.87,SE,135,2.4,12.0,73,0.00,,,0.00,WUHU21636XXSP,2013-06-10 19:57:00,
2013-06-10 16:02:00,70.0,60.8,29.87,SE,135,4.6,12.0,73,0.00,,,0.00,WUHU21636XXSP,2013-06-10 20:02:00,
2013-06-10 16:07:00,70.0,60.8,29.87,SE,135,2.4,10.5,74,0.00,,,0.00,WUHU21636XXSP,2013-06-10 20:07:00,
2013-06-10 16:12:00,70.0,61.2,29.87,ESE,112,0.2,19.4,74,0.00,,,0.00,WUHU21636XXSP,2013-06-10 20:12:00,
2013-06-10 16:17:00,70.0,61.2,29.87,SE,135,0.4,19.4,74,0.00,,,0.00,WUHU21636XXSP,2013-06-10 20:17:00,
2013-06-10 16:22:00,70.0,61.2,29.87,NE,45,0.0,0.4,76,0.00,,,0.00,WUHU21636XXSP,2013-06-10 20:22:00,
2013-06-10 16:27:00,70.0,61.5,29.87,SE,135,10.2,13.1,75,0.00,,,0.00,WUHU21636XXSP,2013-06-10 20:27:00,
2013-06-10 16:32:00,69.6,61.9,29.87,SSE,157,4.4,13.1,77,0.00,,,0.00,WUHU21636XXSP,2013-06-10 20:32:00,
2013-06-10 16:37:00,69.4,61.7,29.87,SE,135,1.3,13.6,77,0.00,,,0.00,WUHU21636XXSP,2013-06-10 20:37:00,
2013-06-10 16:42:00,69.4,61.7,29.87,SE,135,2.0,13.6,77,0.00,,,0.00,WUHU21636XXSP,2013-06-10 20:42:00,
2013-06-10 16:47:00,69.4,61.3,29.87,SE,135,4.6,9.8,76,0.00,,,0.00,WUHU21636XXSP,2013-06-10 20:47:00,
2013-06-10 16:52:00,69.6,61.9,29.87,SE,135,0.0,9.8,77,0.00,,,0.00,WUHU21636XXSP,2013-06-10 20:52:00,
2013-06-10 16:57:00,69.4,61.3,29.87,East,90,0.0,3.1,76,0.00,,,0.00,WUHU21636XXSP,2013-06-10 20:57:00,
2013-06-10 17:02:00,69.4,61.3,29.87,SE,135,0.0,3.8,77,0.00,,,0.00,WUHU21636XXSP,2013-06-10 21:02:00,
2013-06-10 17:07:00,69.4,61.3,29.87,ENE,67,0.0,3.8,77,0.00,,,0.00,WUHU21636XXSP,2013-06-10 21:07:00,
2013-06-10 17:12:00,69.4,61.3,29.86,SE,135,1.1,1.1,78,0.00,,,0.00,WUHU21636XXSP,2013-06-10 21:12:00,
2013-06-10 17:17:00,69.6,61.9,29.86,SE,135,0.0,1.1,77,0.00,,,0.00,WUHU21636XXSP,2013-06-10 21:17:00,
2013-06-10 17:22:00,69.6,61.9,29.86,SE,135,3.5,3.5,77,0.00,,,0.00,WUHU21636XXSP,2013-06-10 21:22:00,
2013-06-10 17:27:00,69.8,62.1,29.86,SE,135,1.3,3.5,77,0.00,,,0.00,WUHU21636XXSP,2013-06-10 21:27:00,
2013-06-10 17:32:00,69.6,61.9,29.86,SE,135,1.1,3.5,77,0.00,,,0.00,WUHU21636XXSP,2013-06-10 21:32:00,
2013-06-10 17:37:00,69.4,61.7,29.86,NNE,22,4.2,4.2,77,0.00,,,0.00,WUHU21636XXSP,2013-06-10 21:37:00,
2013-06-10 17:42:00,69.1,54.3,29.86,SE,135,0.0,4.2,77,0.00,,,0.00,WUHU21636XXSP,2013-06-10 21:42:00,
2013-06-10 17:47:00,68.7,61.2,29.86,ESE,112,3.5,8.2,77,0.00,,,0.00,WUHU21636XXSP,2013-06-10 21:47:00,
2013-06-10 17:52:00,68.5,61.3,29.87,SE,135,0.0,8.2,78,0.00,,,0.00,WUHU21636XXSP,2013-06-10 21:52:00,
2013-06-10 17:57:00,68.7,61.5,29.87,SE,135,2.9,2.9,78,0.00,,,0.00,WUHU21636XXSP,2013-06-10 21:57:00,
2013-06-10 18:02:00,68.5,61.3,29.87,SE,135,0.0,2.9,78,0.00,,,0.00,WUHU21636XXSP,2013-06-10 22:02:00,
2013-06-10 18:07:00,68.0,61.2,29.87,ESE,112,1.5,3.3,79,0.00,,,0.00,WUHU21636XXSP,2013-06-10 22:07:00,
2013-06-10 18:12:00,67.6,60.8,29.87,SE,135,3.5,3.5,79,0.00,,,0.00,WUHU21636XXSP,2013-06-10 22:12:00,
2013-06-10 18:17:00,67.6,60.8,29.87,SE,135,2.0,3.5,80,0.00,,,0.00,WUHU21636XXSP,2013-06-10 22:17:00,
2013-06-10 18:22:00,67.5,61.2,29.87,SE,135,4.6,4.6,80,0.00,,,0.00,WUHU21636XXSP,2013-06-10 22:22:00,
2013-06-10 18:27:00,67.1,60.8,29.87,SSE,157,0.0,4.6,80,0.00,,,0.00,WUHU21636XXSP,2013-06-10 22:27:00,
2013-06-10 18:32:00,66.9,60.6,29.87,SE,135,0.0,4.9,80,0.00,,,0.00,WUHU21636XXSP,2013-06-10 22:32:00,
2013-06-10 18:37:00,66.7,60.6,29.88,SE,135,1.7,6.9,81,0.00,,,0.00,WUHU21636XXSP,2013-06-10 22:37:00,
2013-06-10 18:42:00,66.6,60.4,29.88,SE,135,0.0,6.9,81,0.00,,,0.00,WUHU21636XXSP,2013-06-10 22:42:00,
2013-06-10 18:47:00,66.6,60.4,29.88,SE,135,0.0,3.1,81,0.00,,,0.00,WUHU21636XXSP,2013-06-10 22:47:00,
2013-06-10 18:52:00,66.6,60.4,29.88,SE,135,0.0,0.0,81,0.00,,,0.00,WUHU21636XXSP,2013-06-10 22:52:00,
2013-06-10 18:57:00,66.4,60.3,29.87,West,270,3.8,3.8,81,0.00,,,0.00,WUHU21636XXSP,2013-06-10 22:57:00,
2013-06-10 19:02:00,66.4,60.3,29.88,SE,135,0.0,3.8,82,0.00,,,0.00,WUHU21636XXSP,2013-06-10 23:02:00,
2013-06-10 19:07:00,65.8,60.1,29.87,SSE,157,0.0,0.4,82,0.00,,,0.00,WUHU21636XXSP,2013-06-10 23:07:00,
2013-06-10 19:12:00,65.8,60.1,29.87,WNW,292,0.0,0.4,82,0.00,,,0.00,WUHU21636XXSP,2013-06-10 23:12:00,
2013-06-10 19:17:00,65.5,59.7,29.87,WNW,292,0.0,0.0,82,0.00,,,0.00,WUHU21636XXSP,2013-06-10 23:17:00,
2013-06-10 19:22:00,65.5,59.7,29.88,SW,225,0.0,0.0,82,0.00,,,0.00,WUHU21636XXSP,2013-06-10 23:22:00,
2013-06-10 19:27:00,65.5,59.7,29.88,SSW,202,0.0,0.0,82,0.00,,,0.00,WUHU21636XXSP,2013-06-10 23:27:00,
2013-06-10 19:32:00,65.1,59.4,29.87,SSE,157,0.0,0.0,82,0.00,,,0.00,WUHU21636XXSP,2013-06-10 23:32:00,
2013-06-10 19:37:00,65.1,59.4,29.88,SSE,157,0.0,0.0,82,0.00,,,0.00,WUHU21636XXSP,2013-06-10 23:37:00,
2013-06-10 19:42:00,65.1,59.4,29.88,SSE,157,0.0,0.0,83,0.00,,,0.00,WUHU21636XXSP,2013-06-10 23:42:00,
2013-06-10 19:47:00,64.9,59.5,29.88,SSW,202,0.0,0.0,83,0.00,,,0.00,WUHU21636XXSP,2013-06-10 23:47:00,
2013-06-10 19:52:00,64.8,59.4,29.88,West,270,0.0,1.3,83,0.00,,,0.00,WUHU21636XXSP,2013-06-10 23:52:00,
2013-06-10 19:57:00,64.4,59.0,29.88,WSW,247,0.0,1.3,83,0.00,,,0.00,WUHU21636XXSP,2013-06-10 23:57:00,
2013-06-10 20:02:00,64.2,58.8,29.88,SE,135,0.4,0.4,83,0.00,,,0.00,WUHU21636XXSP,2013-06-11 00:02:00,
2013-06-10 20:07:00,64.2,58.8,29.88,ENE,67,0.0,4.4,83,0.00,,,0.00,WUHU21636XXSP,2013-06-11 00:07:00,
2013-06-10 20:12:00,64.2,58.8,29.88,NE,45,0.0,4.4,83,0.00,,,0.00,WUHU21636XXSP,2013-06-11 00:12:00,
2013-06-10 20:17:00,64.0,58.6,29.88,ENE,67,0.0,0.0,83,0.00,,,0.00,WUHU21636XXSP,2013-06-11 00:17:00,
2013-06-10 20:22:00,63.9,58.5,29.88,SE,135,0.0,0.0,83,0.00,,,0.00,WUHU21636XXSP,2013-06-11 00:22:00,
2013-06-10 20:27:00,63.7,58.3,29.87,South,180,0.4,3.1,83,0.00,,,0.00,WUHU21636XXSP,2013-06-11 00:27:00,
2013-06-10 20:32:00,63.7,58.3,29.87,South,180,0.0,3.1,83,0.00,,,0.00,WUHU21636XXSP,2013-06-11 00:32:00,
2013-06-10 20:37:00,63.3,57.9,29.87,SSE,157,1.5,1.5,83,0.00,,,0.00,WUHU21636XXSP,2013-06-11 00:37:00,
2013-06-10 20:42:00,63.3,57.9,29.88,SE,135,0.0,1.7,83,0.00,,,0.00,WUHU21636XXSP,2013-06-11 00:42:00,
2013-06-10 20:47:00,63.3,57.9,29.88,SE,135,0.0,1.7,83,0.00,,,0.00,WUHU21636XXSP,2013-06-11 00:47:00,
2013-06-10 20:52:00,63.3,57.9,29.88,NW,315,0.0,0.0,83,0.00,,,0.00,WUHU21636XXSP,2013-06-11 00:52:00,
2013-06-10 20:57:00,62.8,57.4,29.88,SW,225,0.0,2.9,83,0.00,,,0.00,WUHU21636XXSP,2013-06-11 00:57:00,
2013-06-10 21:02:00,62.4,57.0,29.87,SE,135,2.2,2.9,83,0.00,,,0.00,WUHU21636XXSP,2013-06-11 01:02:00,
2013-06-10 21:07:00,62.4,57.0,29.87,SE,135,0.0,2.2,83,0.00,,,0.00,WUHU21636XXSP,2013-06-11 01:07:00,
2013-06-10 21:12:00,62.2,56.8,29.87,SE,135,0.0,2.2,83,0.00,,,0.00,WUHU21636XXSP,2013-06-11 01:12:00,
2013-06-10 21:17:00,62.1,56.7,29.87,SSE,157,0.0,0.0,83,0.00,,,0.00,WUHU21636XXSP,2013-06-11 01:17:00,
2013-06-10 21:22:00,61.9,56.5,29.87,SSE,157,0.0,0.0,84,0.00,,,0.00,WUHU21636XXSP,2013-06-11 01:22:00,
2013-06-10 21:27:00,61.7,56.7,29.87,West,270,0.0,0.0,84,0.00,,,0.00,WUHU21636XXSP,2013-06-11 01:27:00,
2013-06-10 21:32:00,61.5,56.5,29.87,WSW,247,0.0,0.0,84,0.00,,,0.00,WUHU21636XXSP,2013-06-11 01:32:00,
2013-06-10 21:37:00,61.3,56.5,29.87,North,0,0.0,0.0,84,0.00,,,0.00,WUHU21636XXSP,2013-06-11 01:37:00,
2013-06-10 21:42:00,61.3,56.5,29.87,SE,135,0.0,0.0,85,0.00,,,0.00,WUHU21636XXSP,2013-06-11 01:42:00,
2013-06-10 21:47:00,61.2,56.5,29.87,SE,135,0.0,0.0,85,0.00,,,0.00,WUHU21636XXSP,2013-06-11 01:47:00,
2013-06-10 21:52:00,61.0,56.1,29.88,SE,135,0.0,0.0,84,0.00,,,0.00,WUHU21636XXSP,2013-06-11 01:52:00,
2013-06-10 21:57:00,60.6,56.1,29.88,SE,135,0.0,0.0,85,0.00,,,0.00,WUHU21636XXSP,2013-06-11 01:57:00,
2013-06-10 22:02:00,60.4,55.9,29.88,SE,135,0.0,0.0,85,0.00,,,0.00,WUHU21636XXSP,2013-06-11 02:02:00,
2013-06-10 22:07:00,60.4,55.9,29.88,NE,45,0.0,0.0,85,0.00,,,0.00,WUHU21636XXSP,2013-06-11 02:07:00,
2013-06-10 22:12:00,60.4,55.9,29.88,ESE,112,0.0,0.0,85,0.00,,,0.00,WUHU21636XXSP,2013-06-11 02:12:00,
2013-06-10 22:17:00,60.3,55.8,29.88,ESE,112,0.0,0.0,85,0.00,,,0.00,WUHU21636XXSP,2013-06-11 02:17:00,
2013-06-10 22:22:00,59.9,55.4,29.88,ESE,112,0.0,0.0,85,0.00,,,0.00,WUHU21636XXSP,2013-06-11 02:22:00,
2013-06-10 22:29:00,59.2,55.0,29.88,North,0,0.0,1.7,86,0.00,,,0.00,WUHU21636XXSP,2013-06-11 02:29:00,
2013-06-10 22:34:00,59.0,54.7,29.88,NNW,337,0.0,1.7,87,0.00,,,0.00,WUHU21636XXSP,2013-06-11 02:34:00,
2013-06-10 22:39:00,58.8,54.9,29.88,NNW,337,0.0,0.0,87,0.00,,,0.00,WUHU21636XXSP,2013-06-11 02:39:00,
2013-06-10 22:44:00,58.6,54.3,29.88,NNW,337,0.0,0.0,86,0.00,,,0.00,WUHU21636XXSP,2013-06-11 02:44:00,
2013-06-10 22:49:00,58.6,54.3,29.89,NNW,337,0.0,0.0,87,0.00,,,0.00,WUHU21636XXSP,2013-06-11 02:49:00,
2013-06-10 22:54:00,58.6,54.3,29.89,NNW,337,0.0,0.0,87,0.00,,,0.00,WUHU21636XXSP,2013-06-11 02:54:00,
2013-06-10 22:59:00,58.6,54.3,29.89,NNW,337,0.0,0.0,87,0.00,,,0.00,WUHU21636XXSP,2013-06-11 02:59:00,
2013-06-10 23:04:00,58.6,50.7,29.89,NNW,337,0.0,0.0,87,0.00,,,0.00,WUHU21636XXSP,2013-06-11 03:04:00,
2013-06-10 23:09:00,58.6,54.3,29.90,NNW,337,0.0,0.0,87,0.00,,,0.00,WUHU21636XXSP,2013-06-11 03:09:00,
2013-06-10 23:14:00,58.6,54.3,29.90,NNW,337,0.0,0.0,87,0.00,,,0.00,WUHU21636XXSP,2013-06-11 03:14:00,
2013-06-10 23:19:00,58.8,54.9,29.89,West,270,0.0,0.0,87,0.00,,,0.00,WUHU21636XXSP,2013-06-11 03:19:00,
2013-06-10 23:24:00,58.8,54.9,29.89,SSE,157,0.0,0.0,87,0.00,,,0.00,WUHU21636XXSP,2013-06-11 03:24:00,
2013-06-10 23:29:00,58.8,54.9,29.90,SW,225,0.0,0.0,87,0.00,,,0.00,WUHU21636XXSP,2013-06-11 03:29:00,
2013-06-10 23:34:00,58.6,54.7,29.90,WNW,292,1.5,1.5,87,0.00,,,0.00,WUHU21636XXSP,2013-06-11 03:34:00,
2013-06-10 23:39:00,58.6,54.7,29.90,WNW,292,0.0,1.5,87,0.00,,,0.00,WUHU21636XXSP,2013-06-11 03:39:00,
2013-06-10 23:44:00,58.6,54.7,29.90,WNW,292,0.0,1.5,87,0.00,,,0.00,WUHU21636XXSP,2013-06-11 03:44:00,
2013-06-10 23:49:00,58.6,54.7,29.89,WNW,292,0.0,0.8,87,0.00,,,0.00,WUHU21636XXSP,2013-06-11 03:49:00,
2013-06-10 23:54:00,58.6,54.7,29.89,WNW,292,0.0,0.8,87,0.00,,,0.00,WUHU21636XXSP,2013-06-11 03:54:00,
2013-06-10 23:59:00,58.6,54.7,29.89,WNW,292,0.0,0.0,87,0.00,,,0.00,WUHU21636XXSP,2013-06-11 03:59:00,